Weather History for KSNT - October, 2014

Change the Weather History Date:

Tuesday, October 7, 2014

  Actual Average Record
Temperature  
Mean Temperature 49 °F 42 °F  
Max Temperature 71 °F 59 °F 77 °F (1971)
Min Temperature 27 °F 25 °F 8 °F (2012)
Degree Days  
Heating Degree Days 16 23  
Month to date heating degree days 132 156  
Since 1 July heating degree days 883 1197  
Cooling Degree Days 0 0  
Month to date cooling degree days 0 0  
Year to date cooling degree days 16 3  
Moisture  
Dew Point 28 °F    
Average Humidity 53    
Maximum Humidity 92    
Minimum Humidity 13    
Precipitation  
Precipitation 0.00 in 0.03 in 0.70 in (1923)
Month to date precipitation 0.00 0.17  
Year to date precipitation 15.91 12.38  
Sea Level Pressure  
Sea Level Pressure 30.03 in    
Wind  
Wind Speed 3 mph (SSE)    
Max Wind Speed 12 mph    
Max Gust Speed 16 mph    
T = Trace of Precipitation, MM = Missing Value Source: NWS Daily Summary

Daily Weather History Graph

Daily Weather History Graph

Search for Another Location

Airport or City:

Trip Planner

Search our weather history database for the weather conditions in past years. The results will help you decide how hot, cold, wet, or windy it might be!

Date:

Astronomy

Oct. 07, 2014 Rise Set
Actual Time 7:44 AM MDT 7:09 PM MDT
Civil Twilight 7:15 AM MDT 7:38 PM MDT
Nautical Twilight 6:42 AM MDT 8:11 PM MDT
Astronomical Twilight 6:08 AM MDT 8:45 PM MDT
Moon 6:48 PM MDT (10/7) 6:44 AM MDT (10/7)
Length of Visible Light 12h 22m
Length of Day
11h 24m
Waxing Gibbous, 99% of the Moon is Illuminated
Oct 7
Waxing Gibbous
Oct 8
Full
Oct 15
Last Quarter
Oct 23
New
Oct 30
First Quarter

Hourly Weather History & Observations

Time (MDT) Temp. Windchill Dew Point Humidity Pressure Visibility Wind Dir Wind Speed Gust Speed Precip Events Conditions
12:51 AM 37.9 °F 34.4 °F 32.0 °F 79% 30.03 in - SSE 4.6 mph - N/A   Unknown
1:51 AM 36.0 °F 32.1 °F 32.0 °F 86% 30.02 in - SSE 4.6 mph - N/A   Unknown
2:51 AM 34.0 °F 29.8 °F 30.9 °F 89% 30.03 in - South 4.6 mph - N/A   Unknown
3:51 AM 32.0 °F - 30.0 °F 92% 30.03 in - Calm Calm - N/A   Unknown
4:51 AM 30.9 °F - 28.0 °F 89% 30.02 in - Calm Calm - N/A   Unknown
5:51 AM 28.0 °F - 26.1 °F 92% 30.04 in - Calm Calm - N/A   Unknown
6:51 AM 28.0 °F - 27.0 °F 96% 30.11 in - Calm Calm - N/A   Unknown
7:51 AM 27.0 °F - 25.0 °F 92% 30.13 in - Calm Calm - N/A   Unknown
8:51 AM 32.0 °F - 28.9 °F 88% 30.15 in - Calm Calm - N/A   Unknown
9:51 AM 39.9 °F - 32.0 °F 73% 30.12 in - Calm Calm - N/A   Unknown
10:51 AM 46.9 °F - 35.1 °F 63% 30.10 in - Calm Calm - N/A   Unknown
11:51 AM 55.0 °F - 37.0 °F 51% 30.05 in - North 4.6 mph - N/A   Unknown
12:51 PM 63.0 °F - 37.0 °F 38% 30.00 in - Variable 3.5 mph - N/A   Unknown
1:51 PM 68.0 °F - 30.0 °F 24% 29.97 in - NE 4.6 mph - N/A   Unknown
2:51 PM 71.1 °F - 25.0 °F 18% 29.94 in - Variable 5.8 mph - N/A   Unknown
3:51 PM 71.1 °F - 17.1 °F 13% 29.94 in - Calm Calm - N/A   Unknown
4:51 PM 70.0 °F - 18.0 °F 14% 29.94 in - Variable 5.8 mph - N/A   Unknown
5:51 PM 69.1 °F - 23.0 °F 18% 29.94 in - NW 4.6 mph - N/A   Unknown
6:51 PM 53.1 °F - 28.9 °F 40% 30.01 in - SSW 4.6 mph - N/A   Unknown
7:51 PM 46.9 °F - 25.0 °F 42% 30.05 in - South 5.8 mph - N/A   Unknown
8:51 PM 41.0 °F 38.0 °F 21.9 °F 47% 30.06 in - South 4.6 mph - N/A   Unknown
9:51 PM 43.0 °F 38.8 °F 24.1 °F 47% 30.03 in - South 6.9 mph - N/A   Unknown
10:51 PM 35.1 °F 31.0 °F 23.0 °F 61% 30.05 in - South 4.6 mph - N/A   Unknown
11:51 PM 33.1 °F 30.0 °F 24.1 °F 70% 30.04 in - SSE 3.5 mph - N/A   Unknown